Погода в Князе-Волконском

Россия / Хабаровский край     48°28′08″N   135°27′16″E
темп.,
°C
ветер,
м/с
пор.,
м/с
влажн.,
%
обл.,
%
осадки,
мм/ч
давл.,
гПа
погр.,
м
22 июня, вт
вт2201:00+14зсз227798 0.0 100911
04:00+13ююз227863 0.0 101012
07:00+15ю23765 0.0 101090
10:00+21ююз34606 0.0 1010515
13:00+25з3449100 0.0 10091222
16:00+25з455396 0.0 1008861
19:00+23з25704 0.0 1008193
22:00+18з118094 0.0 100911
23 июня, ср
ср2301:00+16ююз347880 0.0 100853
04:00+15ююз337714 0.0 100931
07:00+16ююз2479100 0.0 1009115
10:00+22юз476099 0.0 1009513
13:00+26зюз56495 0.0 10081200
16:00+27зюз5652100 0.0 10061569
19:00+25зюз357089 0.0 1006172
22:00+19зсз118799 0.0 100711
24 июня, чт
чт2401:00+17ююз229250 0.7 100725
04:00+16юз229362 2.1 100717
07:00+18ююв22906 0.1 1008126
10:00+22юз23735 0.1 1007648
13:00+26з346420 0.5 10061278
16:00+27з356153 1.9 10051352
19:00+26зюз12708 0.6 1003516
22:00+20юз228237 0.7 100412
25 июня, пт
пт2501:00+18ююз338595 0.1 100548
04:00+16ю410909 0.3 1005214
07:00+17ю488994 0.0 1005225
10:00+23юз57705 0.0 1005875
13:00+26юз576140 0.1 10041544
16:00+25зюз577371 1.6 10041063
19:00+24ююз378242 2.4 1003331
22:00+19ююз3390100 4.9 100436
26 июня, сб
сб2601:00+19ююз1194100 7.1 100524
04:00+18юв2498100 11.9 1006130
07:00+17ссв3499100 2.1 1008207
10:00+16ссв3497100 3.2 1010228
13:00+17св449096 0.2 1010370
16:00+22св347321 0.2 1010806
19:00+20ссв6779100 0.0 1010475
22:00+15ссв369110 0.0 1012118